Regional Weather Roundup
Issued by NWS

Home | Current Version | Previous Version | Text Only | Print | Product List | Glossary Off
Versions: 1 2 3 4 5 6 7 8 9 10 11 12 13 14 15 16 17 18 19 20 21 22 23 24 25 26 27 28 29 30 31 32 33 34 35 36 37 38 39 40 41 42 43 44 45 46 47 48 49 50

000
ASUS43 KMPX 280401
RWRMN
WEATHER ROUNDUP FOR MINNESOTA
NATIONAL WEATHER SERVICE TWIN CITIES/CHANHASSEN MN
1100 PM CDT MON JUL 27 2015


NOTE: "FAIR" INDICATES FEW OR NO CLOUDS BELOW 12,000 FEET WITH NO
SIGNIFICANT WEATHER AND/OR OBSTRUCTIONS TO VISIBILITY. N/A MEANS
CURRENT SKY AND/OR WEATHER CONDITIONS ARE NOT AVAILABLE.

MNZ060>063-068>070-280500-
   Twin Cities Metro

CITY           SKY/WX    TMP DP  RH WIND       PRES   REMARKS
TWIN CITIES    PTCLDY    78  71  79 SE8       29.91S
ST PAUL        CLEAR     77  72  84 SE7       29.91S
CRYSTAL        CLEAR     81  71  71 SE14G20   29.89S
BLAINE         CLEAR     79  73  83 SE7       29.91R
LAKEVILLE      CLEAR     73  70  88 SE5       29.93R
EDEN PRAIRIE   CLEAR     78  71  79 SE10      29.91R
SOUTH ST PAUL  FAIR      78  71  78 SE6       29.92R
LAKE ELMO      FAIR      77  72  83 SE6       29.94R
$$
MNZ001>005-007-008-013>017-022>024-027-028-280500-
   Northwest Minnesota

CITY           SKY/WX    TMP DP  RH WIND       PRES   REMARKS
BEMIDJI        PTCLDY    76  70  82 SE14G20   29.87S
HALLOCK        PTCLDY    77  72  83 E10       29.76F
ROSEAU         CLEAR     75  70  83 E6        29.83S
WARROAD        CLEAR     77  72  83 SE7       29.84F
THIEF RVR FALL PTCLDY    75  70  83 SE9       29.81S
CROOKSTON      PTCLDY    75  72  88 SE8       29.78S
FOSSTON        CLEAR     73  68  83 SE8       29.83F
DETROIT LAKES  CLEAR     77  70  78 SE10G20   29.85S
MOORHEAD       CLEAR     77  72  83 SE10      29.79R
PARK RAPIDS    CLEAR     77  70  79 SE10      29.88R
MAHNOMEN       FAIR      77  70  80 SE9       29.82R
$$
MNZ006-009>011-018-025>026-280500-
   North Central Minnesota

CITY           SKY/WX    TMP DP  RH WIND       PRES   REMARKS
BAUDETTE       CLEAR     74  66  76 SE7       29.86S
FLAG ISLAND    CLEAR     81  72  74 S10       29.83S
INTL FALLS     CLEAR     75  66  73 S6        29.90R
WASKISH        CLEAR     72  68  88 E5        29.87S
BIG FORK       CLEAR     75  66  73 SE3       29.92R
LONGVILLE      CLEAR     73  70  88 SE3       29.91R
GRAND RAPIDS   CLEAR     73  64  73 SE7       29.93R
CRANE LAKE     CLEAR     66  64  94 SE1       29.94R
ORR            CLEAR     73  61  64 SE5       29.91S
COOK           CLEAR     73  63  68 SE3       29.95R
WALKER         FAIR      76  70  80 SE9       29.89R
$$
MNZ012-019>021-037-280500-
   Northeast Minnesota

CITY           SKY/WX    TMP DP  RH WIND       PRES   REMARKS
DULUTH         PTCLDY    70  63  78 SE5       29.96S
ELY            CLEAR     72  59  64 SE7       29.96S
HIBBING        CLEAR     70  64  81 SE5       29.94S
EVELETH        CLEAR     70  61  73 CALM      29.97S
DULUTH HARBOR  CLEAR     70  68  94 NE8       29.93F
TWO HARBORS    CLEAR     72  64  78 NE5       29.94S
SILVER BAY     CLEAR     70  63  78 N3        29.95S
GRAND MARAIS     N/A     62  59  90 CALM      29.96R
G MARAIS ARPRT   N/A     66  55  68 SE3       30.02S
$$
MNZ029>031-032-039>041-046>048-054>057-064-280500-
   West Central Minnesota

CITY           SKY/WX    TMP DP  RH WIND       PRES   REMARKS
FERGUS FALLS   CLEAR     79  72  78 SE12      29.81S
WHEATON        CLEAR     73  70  88 SE12      29.80F
MORRIS         CLEAR     75  73  94 SE10      29.82F
ALEXANDRIA     CLEAR     75  72  90 SE12      29.88R
ELBOW LAKE     FAIR      76  72  88 SE14      29.83S
WADENA         CLEAR     75  70  83 SE10      29.87S
GLENWOOD       CLEAR     75  72  88 SE12G17   29.88S
APPLETON       CLEAR     77  72  83 SE12      29.82S
BENSON         CLEAR     75  70  83 S7        29.84S
ORTONVILLE     CLEAR     75  70  83 SE10      29.80F
MADISON        CLEAR     75  72  88 SE12      29.82S
WILLMAR        FAIR      75  73  94 SE13      29.88S
$$
MNZ033>034-036-042>043-049>051-058-059-280500-
   Central Minnesota

CITY           SKY/WX    TMP DP  RH WIND       PRES   REMARKS
ST CLOUD       CLEAR     75  72  90 SE5       29.90R
SAUK CENTRE    FAIR      75  72  89 SE8       29.88F
PAYNESVILLE    CLEAR     74  71  89 E10       29.89S
AITKIN         CLEAR     75  68  78 SE7       29.91R
PINE RIVER     CLEAR     75  70  83 SE9       29.93S
BRAINERD       CLEAR     75  70  84 SE8       29.91R
STAPLES        CLEAR     75  70  83 SE5       29.89R
LONG PRAIRIE   FAIR      73  70  88 E7        29.89S
LITTLE FALLS   CLEAR     73  68  83 SE8       29.89S
LITCHFIELD     CLEAR     77  75  94 SE9G16    29.90R
BUFFALO        CLEAR     78  70  78 SE7       29.91R
MAPLE LAKE     CLEAR     77  73  88 SE6       29.90R
$$
MNZ037-044-045-052-053-280500-
   East Central Minnesota

CITY           SKY/WX    TMP DP  RH WIND       PRES   REMARKS
PRINCETON      CLEAR     77  72  83 SE6       29.91R
MORA           CLEAR     73  68  83 SE3       29.94R
CAMBRIDGE      CLEAR     79  66  65 SE6       29.90R
RUSH CITY      CLEAR     73  68  84 SE5       29.93R
MOOSE LAKE     CLEAR     73  68  83 CALM      29.92S
HINCKLEY       FAIR      73  70  88 SE3       29.93R
CLOQUET        CLEAR     72  64  78 CALM      29.95S
MCGREGOR       CLEAR     72  68  88 SE5       29.93R
$$
MNZ071>073-080-081-089-090-097-098-280500-
   Southwest Minnesota

CITY           SKY/WX    TMP DP  RH WIND       PRES   REMARKS
MONTEVIDEO     CLEAR     73  72  94 S10       29.86R
GRANITE FALLS  CLEAR     75  70  83 SE12G18   29.86S
CANBY          CLEAR     75  71  87 SE12      29.83F
MARSHALL       CLEAR     75  66  73 SE13      29.86R
REDWOOD FALLS  CLEAR     75  68  78 S12       29.87R
OLIVIA         CLEAR     72  68  88 SE8       29.87R
PIPESTONE      PTCLDY    75  70  83 S13       29.86S
WINDOM         CLEAR     73  66  78 SE9G16    29.89S
WORTHINGTON    MOCLDY    73  64  73 SE12G18   29.88S
JACKSON        CLEAR     72  68  88 SE10      29.91R
TRACY          CLEAR     73  70  88 S8        29.87R
SLAYTON        CLEAR     74  70  87 SE3       29.89R
$$
MNZ065>067-074>077-082>085-091>093-280500-
   South Central Minnesota

CITY           SKY/WX    TMP DP  RH WIND       PRES   REMARKS
MANKATO        CLEAR     75  70  83 SE10      29.91R
NEW ULM        CLEAR     73  66  78 SE10      29.90R
ST JAMES       CLEAR     73  70  88 SE13      29.91R
FAIRMONT       CLEAR     73  63  68 SE13      29.91R
GLENCOE        CLEAR     76  73  91 SE6       29.90R
OWATONNA       CLEAR     75  70  83 SE12      29.94R
WASECA         CLEAR     72  70  94 SE7       29.94R
ALBERT LEA     CLEAR     75  73  94 SE10      29.94S
$$
MNZ078>079-086>088-094>096-280500-
   Southeast Minnesota

CITY           SKY/WX    TMP DP  RH WIND       PRES   REMARKS
ROCHESTER      CLEAR     72  70  93 SE8       29.97S
RED WING       CLEAR     79  70  73 SE7       29.92S
STANTON        CLEAR     77  70  79 SE9       29.92R
DODGE CENTER   CLEAR     73  70  88 SE8       29.96S
WINONA         CLEAR     73  68  83 CALM      29.95F
AUSTIN         CLEAR     75  72  88 SE5       29.95S
PRESTON        CLEAR     72  68  87 SE5       29.98F
$$
ABBREVIATIONS USED IN REMARKS
   TC - TEMPERATURES IN CELSIUS
  WCI - WIND CHILL INDEX
   HX - HEAT INDEX
  VSB - VISIBILITY
$$


USA.gov is the U.S. government's official web portal to all federal, state and local government web resources and services.